• In Kazakhstan
  • List of Countries
  • For 7 days
  • Water Temperature
  • Weather Map
  • News
  • Weather Widgets
  • user-avatar
    Login

    Hourly Weather Magenta

    Today, 5 June, Friday

    Time Temperature Precipitation Wind Pressure Humidity
    00:00 +14°C° 1.1 mm 3 mps 735 mmHg 84%
    01:00 +14°C° 0 mm 4 mps 736 mmHg 80%
    02:00 +14°C° 0.2 mm 3 mps 735 mmHg 79%
    03:00 +13°C° 0.2 mm 3 mps 735 mmHg 78%
    04:00 +14°C° 0.2 mm 2 mps 735 mmHg 77%
    05:00 +15°C° 0 mm 2 mps 735 mmHg 76%
    06:00 +15°C° 0 mm 2 mps 735 mmHg 74%
    07:00 +16°C° 0 mm 2 mps 735 mmHg 72%
    08:00 +18°C° 0 mm 2 mps 736 mmHg 65%
    09:00 +21°C° 0 mm 1 mps 736 mmHg 58%
    10:00 +23°C° 0 mm 1 mps 736 mmHg 51%
    11:00 +24°C° 0 mm 1 mps 736 mmHg 48%
    12:00 +25°C° 0 mm 2 mps 737 mmHg 45%
    13:00 +26°C° 0 mm 2 mps 737 mmHg 41%
    14:00 +26°C° 0 mm 2 mps 737 mmHg 42%
    15:00 +26°C° 0 mm 2 mps 737 mmHg 43%
    16:00 +26°C° 0 mm 3 mps 738 mmHg 44%
    17:00 +26°C° 0 mm 2 mps 738 mmHg 48%
    18:00 +25°C° 0 mm 2 mps 738 mmHg 52%
    19:00 +24°C° 0 mm 2 mps 739 mmHg 56%
    20:00 +23°C° 0 mm 2 mps 739 mmHg 61%
    21:00 +21°C° 0 mm 1 mps 740 mmHg 66%
    22:00 +20°C° 0 mm 1 mps 741 mmHg 71%
    23:00 +19°C° 0 mm 1 mps 741 mmHg 71%

    Tomorrow, 6 June, Saturday

    Time Temperature Precipitation Wind Pressure Humidity
    00:00 +19°C° 0 mm 1 mps 741 mmHg 71%
    01:00 +18°C° 0 mm 1 mps 741 mmHg 72%
    02:00 +18°C° 0 mm 1 mps 741 mmHg 72%
    03:00 +18°C° 0 mm 1 mps 742 mmHg 72%
    04:00 +16°C° 0 mm 1 mps 742 mmHg 73%
    05:00 +18°C° 0 mm 1 mps 742 mmHg 72%
    06:00 +19°C° 0 mm 1 mps 742 mmHg 72%
    07:00 +19°C° 0 mm 1 mps 742 mmHg 71%
    08:00 +20°C° 0.1 mm 1 mps 742 mmHg 69%
    09:00 +21°C° 0.1 mm 1 mps 742 mmHg 67%
    10:00 +23°C° 0.1 mm 2 mps 742 mmHg 65%
    11:00 +24°C° 0.2 mm 2 mps 742 mmHg 60%
    12:00 +25°C° 0.2 mm 2 mps 742 mmHg 55%
    13:00 +26°C° 0.2 mm 2 mps 741 mmHg 51%
    14:00 +27°C° 0.1 mm 2 mps 741 mmHg 50%
    15:00 +27°C° 0.1 mm 2 mps 741 mmHg 50%
    16:00 +27°C° 0.1 mm 2 mps 741 mmHg 49%
    17:00 +26°C° 0.4 mm 2 mps 741 mmHg 55%
    18:00 +25°C° 0.4 mm 2 mps 741 mmHg 60%
    19:00 +23°C° 0.4 mm 2 mps 741 mmHg 66%
    20:00 +21°C° 0.2 mm 2 mps 741 mmHg 68%
    21:00 +20°C° 0.2 mm 2 mps 742 mmHg 69%
    22:00 +20°C° 0.2 mm 1 mps 742 mmHg 71%
    23:00 +20°C° 0.1 mm 1 mps 742 mmHg 73%

    Day after tomorrow, 7 June, Sunday

    Time Temperature Precipitation Wind Pressure Humidity
    00:00 +20°C° 0.1 mm 1 mps 742 mmHg 75%
    01:00 +17°C° 0.1 mm 0 mps 742 mmHg 77%
    02:00 +17°C° 0.2 mm 0 mps 741 mmHg 79%
    03:00 +17°C° 0.2 mm 0 mps 741 mmHg 80%
    04:00 +17°C° 0.2 mm 0 mps 741 mmHg 82%
    05:00 +19°C° 0.4 mm 1 mps 741 mmHg 82%
    06:00 +19°C° 0.4 mm 1 mps 741 mmHg 82%
    07:00 +19°C° 0.4 mm 1 mps 741 mmHg 82%
    08:00 +20°C° 0.9 mm 1 mps 741 mmHg 82%
    09:00 +20°C° 0.9 mm 1 mps 741 mmHg 81%
    10:00 +20°C° 0.9 mm 1 mps 742 mmHg 81%
    11:00 +21°C° 0.9 mm 1 mps 742 mmHg 79%
    12:00 +22°C° 0.9 mm 1 mps 742 mmHg 77%
    13:00 +21°C° 0.9 mm 2 mps 742 mmHg 75%
    14:00 +23°C° 1.9 mm 2 mps 742 mmHg 73%
    15:00 +23°C° 1.9 mm 2 mps 741 mmHg 72%
    16:00 +22°C° 1.9 mm 3 mps 741 mmHg 70%
    17:00 +21°C° 2.6 mm 3 mps 741 mmHg 74%
    18:00 +20°C° 2.6 mm 3 mps 741 mmHg 79%
    19:00 +19°C° 2.6 mm 3 mps 741 mmHg 83%
    20:00 +18°C° 3.5 mm 3 mps 742 mmHg 85%
    21:00 +17°C° 3.5 mm 3 mps 742 mmHg 86%
    22:00 +16°C° 3.5 mm 3 mps 743 mmHg 88%
    23:00 +16°C° 0.9 mm 3 mps 743 mmHg 85%

    8 June, Monday

    Time Temperature Precipitation Wind Pressure Humidity
    00:00 +16°C° 0.9 mm 3 mps 743 mmHg 83%
    01:00 +16°C° 0.9 mm 2 mps 743 mmHg 81%
    02:00 +16°C° 0.6 mm 2 mps 742 mmHg 81%
    03:00 +16°C° 0.6 mm 1 mps 742 mmHg 81%
    04:00 +16°C° 0.6 mm 1 mps 742 mmHg 81%
    05:00 +16°C° 0.1 mm 1 mps 742 mmHg 80%
    06:00 +16°C° 0.1 mm 1 mps 742 mmHg 79%
    07:00 +18°C° 0.1 mm 1 mps 743 mmHg 79%
    08:00 +18°C° 0 mm 1 mps 743 mmHg 76%
    09:00 +19°C° 0 mm 1 mps 743 mmHg 74%
    10:00 +20°C° 0 mm 1 mps 743 mmHg 72%
    11:00 +21°C° 0.1 mm 1 mps 743 mmHg 69%
    12:00 +22°C° 0.1 mm 1 mps 743 mmHg 66%
    13:00 +23°C° 0.1 mm 1 mps 743 mmHg 63%
    14:00 +24°C° 0.6 mm 1 mps 743 mmHg 61%
    15:00 +24°C° 0.6 mm 1 mps 743 mmHg 58%
    16:00 +25°C° 0.6 mm 1 mps 742 mmHg 56%
    17:00 +24°C° 0.8 mm 1 mps 743 mmHg 59%
    18:00 +23°C° 0.8 mm 1 mps 743 mmHg 63%
    19:00 +22°C° 0.8 mm 1 mps 743 mmHg 66%
    20:00 +21°C° 0.8 mm 1 mps 744 mmHg 69%
    21:00 +20°C° 0.8 mm 1 mps 744 mmHg 72%
    22:00 +19°C° 0.8 mm 1 mps 745 mmHg 75%
    23:00 +19°C° 0.5 mm 1 mps 745 mmHg 76%

    9 June, Tuesday

    Time Temperature Precipitation Wind Pressure Humidity
    00:00 +18°C° 0.5 mm 1 mps 745 mmHg 76%
    01:00 +18°C° 0.5 mm 1 mps 745 mmHg 77%
    02:00 +16°C° 0.3 mm 1 mps 745 mmHg 77%
    03:00 +16°C° 0.3 mm 1 mps 745 mmHg 78%
    04:00 +16°C° 0.3 mm 1 mps 745 mmHg 78%
    05:00 +16°C° 0.2 mm 1 mps 745 mmHg 76%
    06:00 +18°C° 0.2 mm 1 mps 745 mmHg 75%
    07:00 +18°C° 0.2 mm 1 mps 745 mmHg 74%
    08:00 +20°C° 0.2 mm 1 mps 745 mmHg 70%
    09:00 +21°C° 0.2 mm 1 mps 746 mmHg 66%
    10:00 +22°C° 0.2 mm 1 mps 746 mmHg 62%
    11:00 +23°C° 0.3 mm 1 mps 746 mmHg 58%
    12:00 +24°C° 0.3 mm 1 mps 746 mmHg 54%
    13:00 +25°C° 0.3 mm 1 mps 746 mmHg 50%
    14:00 +25°C° 0 mm 2 mps 746 mmHg 50%
    15:00 +25°C° 0 mm 2 mps 746 mmHg 51%
    16:00 +25°C° 0 mm 3 mps 745 mmHg 52%
    17:00 +24°C° 0.1 mm 3 mps 746 mmHg 57%
    18:00 +23°C° 0.1 mm 2 mps 746 mmHg 62%
    19:00 +21°C° 0.1 mm 2 mps 746 mmHg 67%
    20:00 +20°C° 0.1 mm 2 mps 746 mmHg 69%
    21:00 +20°C° 0.1 mm 1 mps 747 mmHg 71%
    22:00 +19°C° 0.1 mm 1 mps 747 mmHg 74%
    23:00 +19°C° 0 mm 1 mps 747 mmHg 75%

    10 June, Wednesday

    Time Temperature Precipitation Wind Pressure Humidity
    00:00 +18°C° 0 mm 1 mps 747 mmHg 77%
    01:00 +16°C° 0 mm 1 mps 747 mmHg 79%
    02:00 +16°C° 0 mm 1 mps 747 mmHg 79%
    03:00 +16°C° 0 mm 1 mps 747 mmHg 79%
    04:00 +15°C° 0 mm 1 mps 747 mmHg 79%
    05:00 +16°C° 0 mm 1 mps 747 mmHg 76%
    06:00 +18°C° 0 mm 1 mps 747 mmHg 74%
    07:00 +19°C° 0 mm 1 mps 747 mmHg 71%
    08:00 +20°C° 0 mm 1 mps 747 mmHg 65%
    09:00 +22°C° 0 mm 1 mps 747 mmHg 59%
    10:00 +24°C° 0 mm 1 mps 747 mmHg 54%
    11:00 +25°C° 0 mm 2 mps 747 mmHg 50%
    12:00 +26°C° 0 mm 2 mps 747 mmHg 46%
    13:00 +27°C° 0 mm 2 mps 747 mmHg 43%
    14:00 +27°C° 0 mm 2 mps 747 mmHg 42%
    15:00 +27°C° 0 mm 2 mps 747 mmHg 42%
    16:00 +27°C° 0 mm 2 mps 747 mmHg 41%
    17:00 +26°C° 0 mm 2 mps 747 mmHg 45%
    18:00 +25°C° 0 mm 2 mps 747 mmHg 49%
    19:00 +24°C° 0 mm 2 mps 747 mmHg 52%
    20:00 +23°C° 0 mm 2 mps 747 mmHg 57%
    21:00 +20°C° 0 mm 2 mps 748 mmHg 63%
    22:00 +19°C° 0 mm 2 mps 748 mmHg 68%
    23:00 +18°C° 0 mm 2 mps 748 mmHg 70%
    Show more